Discarica di Monteschiantello Fano (PU) (lat. 43.789272 - lon. 13.063131) Ora solare
Ultimo aggiornamento: 09/12/2019 00:48:07

Temperatura (°C) - Valori minimi, medi e massimi delle ultime 72 ore


Precipitazione totale (mm) - Valori delle ultime 72 ore


Velocità del vento (m/s) - Valori minimi, medi e massimi delle ultime 72 ore


Ultimi valori disponibili

GrandezzaUltimo valore rilevatoTrendData rilevamento
Temperatura med. (°C)11,19 09/12/2019 00:00:00
Temperatura min. (°C)10,77 09/12/2019 00:00:00
Temperatura max. (°C)11,40 09/12/2019 00:00:00
Umidità relativa med. (%)74,00 09/12/2019 00:00:00
Umidità relativa min. (%)72,51 09/12/2019 00:00:00
Umidità relativa max. (%)76,61 09/12/2019 00:00:00
Pressione atmosferica med. (hPa)1004,80 09/12/2019 00:00:00
Radiazione netta med. (W/m^2)83,17 09/12/2019 00:00:00
Radiazione netta min. (W/m^2)64,54 09/12/2019 00:00:00
Radiazione netta max. (W/m^2)94,27 09/12/2019 00:00:00
Velocità vento med. (m/s)3,50 09/12/2019 00:00:00
Velocità vento min. (m/s)1,67 09/12/2019 00:00:00
Velocità vento max. (m/s)5,20 09/12/2019 00:00:00
Direzione vento (gradi)244,81 09/12/2019 00:00:00
Precipitazione totale (mm)0,00 09/12/2019 00:00:00
Contenuto idrico terreno Med. (%)20,51 09/12/2019 00:00:00
Contenuto idrico terreno Min. (%)19,44 09/12/2019 00:00:00
Contenuto idrico terreno Max. (%)21,45 09/12/2019 00:00:00
Radiazione globale med. (W/m^2)0,00 09/12/2019 00:00:00
Radiazione globale min. (W/m^2)0,00 09/12/2019 00:00:00
Radiazione globale max. (W/m^2)0,23 09/12/2019 00:00:00
Temperatura suolo med. (°C)11,10 09/12/2019 00:00:00
Temperatura suolo min. (°C)11,00 09/12/2019 00:00:00
Temperatura suolo max. (°C)11,10 09/12/2019 00:00:00

Caricamento in corso...

..

...